Location: ???????
(55.4362°N, 38.1183°E)
Time: 19:31:19
(UTC+00:00)

FO-29 - Visible Passes

Search period start: 07 December 2021 00:00
Search period end: 17 December 2021 00:00
Orbit: 799 x 1322 km, 98.5° (Epoch: 07 December)

Date Brightness Start Highest point End Pass type
(mag) Time Alt. Az. Time Alt. Az. Time Alt. Az.
07 Dec 11.0 15:20:44 14° NNE 15:20:44 14° NNE 15:22:06 10° N visible
07 Dec 11.3 17:07:13 17° NNW 17:07:13 17° NNW 17:08:20 10° NNW visible
08 Dec 10.9 16:11:22 18° N 16:11:22 18° N 16:12:51 10° N visible
08 Dec 11.8 17:57:51 13° NNW 17:57:51 13° NNW 17:58:20 10° NNW visible
09 Dec 12.0 04:48:29 10° NE 04:51:56 16° E 04:55:34 10° ESE visible
09 Dec 11.0 15:15:32 14° NNE 15:15:32 14° NNE 15:16:56 10° N visible
09 Dec 11.2 17:02:00 17° N 17:02:00 17° N 17:03:12 10° NNW visible
10 Dec 10.9 16:06:09 18° N 16:06:09 18° N 16:07:43 10° N visible
10 Dec 11.7 17:52:37 13° NNW 17:52:37 13° NNW 17:53:15 10° NNW visible
11 Dec 12.1 04:43:27 10° NE 04:46:48 15° E 04:50:20 10° ESE visible
11 Dec 11.0 15:10:17 14° NNE 15:10:17 14° NNE 15:11:46 10° N visible
11 Dec 11.1 16:56:45 18° N 16:56:45 18° N 16:58:06 10° NNW visible
12 Dec 10.9 16:00:54 18° N 16:00:54 18° N 16:02:35 10° N visible
12 Dec 11.6 17:47:22 14° NNW 17:47:22 14° NNW 17:48:10 10° NNW visible
13 Dec 12.1 04:38:24 10° NE 04:41:41 15° E 04:45:06 10° ESE visible
13 Dec 10.9 15:05:01 14° NNE 15:05:01 14° NNE 15:06:37 10° N visible
13 Dec 11.1 16:51:29 19° N 16:51:29 19° N 16:53:00 10° NNW visible
14 Dec 10.8 15:55:37 19° NNE 15:55:37 19° NNE 15:57:29 10° N visible
14 Dec 11.5 17:42:05 16° NNW 17:42:05 16° NNW 17:43:06 10° NNW visible
15 Dec 12.2 04:33:24 10° NE 04:36:34 14° E 04:39:52 10° ESE visible
15 Dec 10.9 14:59:44 14° NNE 14:59:44 14° NNE 15:01:28 10° N visible
15 Dec 11.0 16:46:12 20° N 16:46:12 20° N 16:47:54 10° N visible
15 Dec 12.0 18:32:40 10° NNW 18:32:40 10° NNW 18:32:46 10° NNW visible
16 Dec 10.8 15:50:19 19° NNE 15:50:19 19° NNE 15:52:23 10° N visible
16 Dec 11.4 17:36:47 17° NNW 17:36:47 17° NNW 17:38:02 10° NNW visible
